Flag for Argentina Weather past 2 weeks in Buenos Aires, Argentina

Now
57 °F

Clear.


Feels Like: 56 °F
Forecast: 54 / 65 °F
Wind: 6 mph from East

Location: Buenos Aires Airport

Current Time: Aug 30, 2014 at 1:58:55 AM

Latest Report: Aug 30, 2014 at 1:00 AM


Visibility: 10 mi

Pressure: 30.07 "Hg

Humidity: 72%

Dew point: 48 °F

Location of Buenos AiresLocation

Historic Weather in Buenos Aires — Graph

°F

Buenos Aires temperature yesterday

Maximum temperature yesterday: 61 °F (at 3:00 PM)
Minimum temperature yesterday: 50 °F (at 12:00 AM)
Average temperature yesterday: 55 °F

Past Weeks' High & Low Weather Summary

 TemperatureHumidityPressure
High79 °F (Aug 23, 3:00 PM)100% (Aug 17, 6:00 AM)30.30 "Hg (Aug 17, 6:00 AM)
Low43 °F (Aug 27, 4:00 AM)42% (Aug 29, 3:00 PM)29.45 "Hg (Aug 23, 6:00 PM)
Average59 °F74%29.99 "Hg
* Reported Aug 15 1:00 AM — Aug 30 1:00 AM, Buenos Aires, Weather by CustomWeather, © 2014

Note: Actual official high and low records may vary slightly from our data, if they occured in-between our weather recording intervals... More about our weather records

Advertising

Buenos Aires weather history for previous 24 hours

 ConditionsComfort  
Time TempWeatherWind HumidityBarometerVisibility
1:00 AM
Aug 30
57 °FClear.6 mph72%30.07 "Hg10 mi
12:00 AM57 °FPassing clouds.7 mph77%30.07 "HgN/A
11:00 PM
Aug 29
57 °FClear.12 mph82%30.07 "Hg10 mi
10:00 PM55 °FClear.13 mph88%30.07 "Hg10 mi
9:00 PM55 °FClear.12 mph82%30.07 "Hg10 mi
8:00 PM55 °FPassing clouds.12 mph72%30.09 "HgN/A
7:00 PM57 °FClear.10 mph67%30.07 "Hg10 mi
6:00 PM59 °FPassing clouds.10 mph51%30.07 "HgN/A
4:00 PM59 °FSunny.6 mph48%30.07 "Hg10 mi
3:00 PM61 °FPassing clouds.7 mph42%30.09 "HgN/A
2:00 PM59 °FSunny.6 mph55%30.09 "Hg10 mi
1:00 PM59 °FPassing clouds.5 mph59%30.15 "HgN/A
12:00 PM57 °FSunny.7 mph67%30.15 "Hg10 mi
11:00 AM55 °FPassing clouds.7 mph72%30.15 "HgN/A
10:00 AM55 °FSunny.14 mph67%30.18 "Hg10 mi
9:00 AM54 °FSunny.9 mph63%30.15 "Hg10 mi
8:00 AM54 °FPassing clouds.10 mph63%30.15 "HgN/A
7:00 AM52 °FSunny.8 mph67%30.15 "Hg10 mi
6:00 AM52 °FClear.8 mph72%30.15 "Hg10 mi
5:00 AM52 °FClear.6 mph77%30.12 "Hg10 mi
4:00 AM50 °FClear.6 mph88%30.15 "Hg10 mi
3:00 AM50 °FClear.10 mph88%30.15 "Hg10 mi
2:00 AM50 °FClear.7 mph82%30.18 "Hg10 mi
1:00 AM50 °FClear.10 mph82%30.18 "Hg10 mi
Weather by CustomWeather, © 2014

See weather overviewHow to use our weather pages